When you browse on this site, cookies collect data to enhance your experience and personalize the content and advertising you see.
Visit our Privacy Policy to learn more. By continuing to use the site, you agree to this use of cookies and data.
  • Em Portugal
  • Lista de países
  • Para 7 dias
  • Temperatura da água
  • Mapas de satélite
  • Mapa do tempo
  • Widgets de tempo
  • user-avatar
    Iniciar Sessão

    Previsão horária em Shalashino

    Hoje, 18 Abril, Quinta-feira

    Tempo Temperatura Precipitação Vento Pressão Humidade
    00:00 +5°C° 0 mm 0 m/s 757 mmHg 70%
    01:00 +5°C° 0 mm 0 m/s 757 mmHg 71%
    02:00 +4°C° 0 mm 0 m/s 757 mmHg 69%
    03:00 +4°C° 0 mm 0 m/s 757 mmHg 70%
    04:00 +5°C° 0 mm 1 m/s 756 mmHg 71%
    05:00 +5°C° 0 mm 1 m/s 756 mmHg 72%
    06:00 +5°C° 0 mm 2 m/s 756 mmHg 68%
    07:00 +7°C° 0 mm 2 m/s 756 mmHg 65%
    08:00 +9°C° 0 mm 2 m/s 756 mmHg 63%
    09:00 +10°C° 0 mm 3 m/s 756 mmHg 57%
    10:00 +12°C° 0 mm 3 m/s 756 mmHg 51%
    11:00 +13°C° 0 mm 4 m/s 755 mmHg 45%
    12:00 +14°C° 0 mm 4 m/s 755 mmHg 43%
    13:00 +14°C° 0 mm 5 m/s 755 mmHg 41%
    14:00 +15°C° 0 mm 6 m/s 754 mmHg 39%
    15:00 +14°C° 0 mm 6 m/s 754 mmHg 41%
    16:00 +13°C° 0 mm 6 m/s 754 mmHg 44%
    17:00 +11°C° 0 mm 6 m/s 754 mmHg 47%
    18:00 +10°C° 0 mm 5 m/s 754 mmHg 51%
    19:00 +8°C° 0 mm 5 m/s 755 mmHg 55%
    20:00 +6°C° 0 mm 4 m/s 755 mmHg 59%
    21:00 +6°C° 0 mm 4 m/s 755 mmHg 60%
    22:00 +5°C° 0 mm 4 m/s 756 mmHg 61%
    23:00 +5°C° 0 mm 4 m/s 756 mmHg 62%

    Amanhã, 19 Abril, Sexta-feira

    Tempo Temperatura Precipitação Vento Pressão Humidade
    00:00 +4°C° 0 mm 3 m/s 756 mmHg 65%
    01:00 +3°C° 0 mm 3 m/s 756 mmHg 69%
    02:00 +3°C° 0 mm 3 m/s 757 mmHg 72%
    03:00 +2°C° 0 mm 3 m/s 757 mmHg 76%
    04:00 +2°C° 0 mm 3 m/s 757 mmHg 79%
    05:00 +1°C° 0 mm 3 m/s 757 mmHg 83%
    06:00 +3°C° 0 mm 3 m/s 757 mmHg 76%
    07:00 +4°C° 0 mm 3 m/s 758 mmHg 70%
    08:00 +7°C° 0 mm 3 m/s 758 mmHg 63%
    09:00 +8°C° 0 mm 3 m/s 758 mmHg 56%
    10:00 +10°C° 0 mm 3 m/s 758 mmHg 50%
    11:00 +11°C° 0 mm 3 m/s 758 mmHg 43%
    12:00 +12°C° 0 mm 3 m/s 758 mmHg 41%
    13:00 +12°C° 0 mm 3 m/s 758 mmHg 39%
    14:00 +13°C° 0 mm 3 m/s 757 mmHg 37%
    15:00 +14°C° 0 mm 2 m/s 757 mmHg 38%
    16:00 +14°C° 0 mm 2 m/s 757 mmHg 39%
    17:00 +13°C° 0 mm 2 m/s 757 mmHg 39%
    18:00 +12°C° 0 mm 2 m/s 756 mmHg 44%
    19:00 +10°C° 0 mm 1 m/s 756 mmHg 49%
    20:00 +9°C° 0 mm 1 m/s 756 mmHg 54%
    21:00 +8°C° 0 mm 1 m/s 756 mmHg 55%
    22:00 +8°C° 0 mm 1 m/s 756 mmHg 55%
    23:00 +8°C° 0 mm 1 m/s 756 mmHg 56%

    Depois de amanhã, 20 Abril, Sábado

    Tempo Temperatura Precipitação Vento Pressão Humidade
    00:00 +8°C° 0 mm 1 m/s 756 mmHg 57%
    01:00 +8°C° 0 mm 1 m/s 755 mmHg 58%
    02:00 +7°C° 0 mm 2 m/s 755 mmHg 60%
    03:00 +6°C° 0 mm 2 m/s 755 mmHg 61%
    04:00 +6°C° 0 mm 2 m/s 755 mmHg 63%
    05:00 +6°C° 0 mm 2 m/s 754 mmHg 65%
    06:00 +6°C° 0.1 mm 2 m/s 754 mmHg 68%
    07:00 +7°C° 0.1 mm 2 m/s 754 mmHg 72%
    08:00 +7°C° 0.1 mm 2 m/s 754 mmHg 75%
    09:00 +8°C° 0.3 mm 2 m/s 754 mmHg 75%
    10:00 +8°C° 0.3 mm 2 m/s 753 mmHg 75%
    11:00 +9°C° 0.3 mm 2 m/s 753 mmHg 75%
    12:00 +10°C° 0.3 mm 2 m/s 753 mmHg 72%
    13:00 +10°C° 0.3 mm 2 m/s 753 mmHg 70%
    14:00 +12°C° 0.3 mm 2 m/s 753 mmHg 67%
    15:00 +12°C° 0.4 mm 2 m/s 752 mmHg 67%
    16:00 +12°C° 0.4 mm 2 m/s 752 mmHg 67%
    17:00 +12°C° 0.4 mm 2 m/s 752 mmHg 67%
    18:00 +10°C° 0.3 mm 2 m/s 752 mmHg 70%
    19:00 +9°C° 0.3 mm 2 m/s 752 mmHg 74%
    20:00 +8°C° 0.3 mm 1 m/s 752 mmHg 77%
    21:00 +7°C° 0 mm 2 m/s 752 mmHg 78%
    22:00 +6°C° 0 mm 2 m/s 751 mmHg 79%
    23:00 +5°C° 0 mm 2 m/s 751 mmHg 80%

    21 Abril, Domingo

    Tempo Temperatura Precipitação Vento Pressão Humidade
    00:00 +5°C° 0 mm 2 m/s 751 mmHg 82%
    01:00 +4°C° 0 mm 2 m/s 751 mmHg 84%
    02:00 +4°C° 0 mm 2 m/s 751 mmHg 86%
    03:00 +3°C° 0 mm 2 m/s 751 mmHg 87%
    04:00 +3°C° 0 mm 2 m/s 751 mmHg 89%
    05:00 +3°C° 0 mm 2 m/s 751 mmHg 91%
    06:00 +5°C° 0 mm 2 m/s 752 mmHg 88%
    07:00 +6°C° 0 mm 2 m/s 752 mmHg 85%
    08:00 +8°C° 0 mm 3 m/s 752 mmHg 81%
    09:00 +9°C° 0.3 mm 3 m/s 752 mmHg 76%
    10:00 +11°C° 0.3 mm 4 m/s 752 mmHg 71%
    11:00 +12°C° 0.3 mm 4 m/s 752 mmHg 66%
    12:00 +12°C° 0.5 mm 4 m/s 752 mmHg 64%
    13:00 +13°C° 0.5 mm 4 m/s 752 mmHg 62%
    14:00 +13°C° 0.5 mm 4 m/s 752 mmHg 60%
    15:00 +13°C° 0.2 mm 4 m/s 752 mmHg 59%
    16:00 +13°C° 0.2 mm 4 m/s 753 mmHg 58%
    17:00 +13°C° 0.2 mm 3 m/s 753 mmHg 57%
    18:00 +12°C° 0 mm 3 m/s 753 mmHg 63%
    19:00 +10°C° 0 mm 3 m/s 753 mmHg 69%
    20:00 +8°C° 0 mm 2 m/s 754 mmHg 75%
    21:00 +8°C° 0 mm 2 m/s 754 mmHg 77%
    22:00 +7°C° 0 mm 2 m/s 754 mmHg 79%
    23:00 +7°C° 0 mm 2 m/s 755 mmHg 80%

    22 Abril, Segunda-feira

    Tempo Temperatura Precipitação Vento Pressão Humidade
    00:00 +6°C° 0 mm 2 m/s 755 mmHg 81%
    01:00 +6°C° 0 mm 2 m/s 755 mmHg 82%
    02:00 +5°C° 0 mm 2 m/s 755 mmHg 82%
    03:00 +5°C° 0 mm 2 m/s 756 mmHg 82%
    04:00 +5°C° 0 mm 2 m/s 756 mmHg 82%
    05:00 +4°C° 0 mm 2 m/s 756 mmHg 82%
    06:00 +6°C° 0 mm 2 m/s 756 mmHg 76%
    07:00 +8°C° 0 mm 2 m/s 757 mmHg 70%
    08:00 +9°C° 0 mm 2 m/s 757 mmHg 64%
    09:00 +12°C° 0 mm 2 m/s 757 mmHg 57%
    10:00 +12°C° 0 mm 3 m/s 757 mmHg 50%
    11:00 +13°C° 0 mm 3 m/s 758 mmHg 43%
    12:00 +13°C° 0 mm 3 m/s 758 mmHg 42%
    13:00 +13°C° 0 mm 3 m/s 758 mmHg 42%
    14:00 +13°C° 0 mm 3 m/s 758 mmHg 42%
    15:00 +13°C° 0 mm 3 m/s 758 mmHg 42%
    16:00 +14°C° 0 mm 2 m/s 758 mmHg 42%
    17:00 +14°C° 0 mm 2 m/s 757 mmHg 43%
    18:00 +12°C° 0 mm 2 m/s 758 mmHg 48%
    19:00 +10°C° 0 mm 2 m/s 758 mmHg 53%
    20:00 +9°C° 0 mm 1 m/s 758 mmHg 59%
    21:00 +9°C° 0 mm 1 m/s 758 mmHg 60%
    22:00 +8°C° 0 mm 1 m/s 759 mmHg 61%
    23:00 +8°C° 0 mm 1 m/s 759 mmHg 62%

    23 Abril, Terça-feira

    Tempo Temperatura Precipitação Vento Pressão Humidade
    00:00 +7°C° 0 mm 1 m/s 759 mmHg 63%
    01:00 +7°C° 0 mm 1 m/s 759 mmHg 63%
    02:00 +7°C° 0 mm 1 m/s 759 mmHg 64%
    03:00 +6°C° 0 mm 1 m/s 759 mmHg 64%
    04:00 +6°C° 0 mm 1 m/s 760 mmHg 64%
    05:00 +6°C° 0 mm 1 m/s 760 mmHg 65%
    06:00 +8°C° 0 mm 1 m/s 760 mmHg 60%
    07:00 +10°C° 0 mm 1 m/s 760 mmHg 56%
    08:00 +12°C° 0 mm 1 m/s 760 mmHg 51%
    09:00 +13°C° 0 mm 2 m/s 760 mmHg 47%
    10:00 +14°C° 0 mm 2 m/s 760 mmHg 42%
    11:00 +14°C° 0 mm 3 m/s 760 mmHg 37%
    12:00 +14°C° 0 mm 3 m/s 760 mmHg 38%
    13:00 +16°C° 0 mm 3 m/s 760 mmHg 38%
    14:00 +16°C° 0 mm 3 m/s 759 mmHg 39%
    15:00 +16°C° 0 mm 3 m/s 759 mmHg 41%
    16:00 +14°C° 0 mm 3 m/s 759 mmHg 42%
    17:00 +14°C° 0 mm 3 m/s 759 mmHg 44%
    18:00 +13°C° 0 mm 2 m/s 759 mmHg 49%
    19:00 +12°C° 0 mm 2 m/s 758 mmHg 55%
    20:00 +9°C° 0 mm 2 m/s 758 mmHg 60%
    21:00 +9°C° 0 mm 2 m/s 759 mmHg 62%
    22:00 +8°C° 0 mm 2 m/s 759 mmHg 63%
    23:00 +7°C° 0 mm 2 m/s 759 mmHg 65%
    Mostrar mais